Vertical_Velocity
1 2 2 0 1 1 1 1 -0 -1 -3 -3 -2 -2 -2 -1 -0 0 0 0 -1 -1 -1 -0 -1 -0 1 -2 -2 -3 -5 3 -0 1 -3 3 1 -4 -1 0 -2 1 4 -1 -1
-3 -3 -3 -2 -2 -2 -0 -0 1 -0 -2 -2 -1 -1 -1 -0 0 -1 -1 -1 0 0 -2 -2 -2 -1 -0 -1 -0 -3 1 -2 -2 -3 0 2 -1 1 -3 -1 4 -1 1 1 -1
-3 -1 -2 -2 -3 -2 -0 -1 -0 -0 0 0 -1 -1 -0 -1 -0 -2 -3 -4 -3 -2 -1 1 -0 -1 -2 -1 -4 -1 3 -4 -2 -3 1 -1 2 -1 1 1 0 1 -0 -0 2
-2 -3 -3 -3 -3 -2 -3 -1 -1 -3 -4 -4 -1 2 1 -0 -1 -0 -1 -0 -1 0 -3 -2 1 -0 1 1 -2 -1 -2 3 4 -1 -3 2 6 1 2 6 0 0 -1 2 -0
1 -1 -0 1 1 0 -3 -2 -1 -2 -1 0 -1 -1 1 1 -2 -3 -2 -1 0 1 2 0 -3 2 -0 5 1 -0 3 -1 -1 -1 -4 -2 2 -2 -1 9 -4 -0 -2 -0 1
-1 -0 1 0 -1 -1 0 -0 -1 -1 0 -2 -1 -2 -2 0 -2 -0 0 -1 -1 -1 -1 1 -2 2 -3 -1 -4 -0 -2 -2 -1 -0 0 -3 -1 -4 3 0 10 0 -2 0 2
0 0 -0 -0 0 1 -1 -2 -0 -1 -2 -1 0 1 2 -1 -1 1 2 1 -1 1 -0 0 -3 -2 4 -3 1 -1 2 1 2 0 -3 -8 5 6 -4 0 -2 2 0 -3 -4
0 -0 -1 1 0 0 -1 2 1 -0 -1 -2 -2 0 -3 -0 -1 -1 1 -1 -1 1 0 -1 2 -0 0 0 2 -1 -2 -2 2 0 -4 -10 31 2 -4 -2 -1 -0 2 2 3
-1 -1 1 -1 -1 -2 -1 -1 -1 -1 -2 -0 2 -5 4 -0 0 -1 -1 1 -1 -1 0 -2 -2 1 5 -2 0 4 -5 -2 1 -1 -5 -4 15 9 -2 -2 3 3 -2 -0 -1
-2 -3 -4 -3 -4 1 1 -1 -0 3 0 -1 6 -6 4 3 -1 -0 -0 2 2 1 0 -0 -2 4 2 0 4 -4 -4 -1 -2 4 -3 -2 16 -7 4 -0 1 5 2 -2 -3
-3 -1 -3 -5 -5 -1 -3 -5 -4 -7 5 -3 -9 1 -5 -3 -1 -2 -1 -0 -0 1 -1 1 3 -0 0 1 -3 1 -4 -7 13 -8 -16 1 -2 15 -7 6 10 1 -6 -5 5
1 3 -0 -4 -0 -1 -7 -3 -3 -8 28 -11 -5 -4 1 0 2 6 2 1 -1 -1 -0 -2 8 -1 -3 -1 1 1 -2 6 -4 3 -9 -5 -2 10 2 9 11 1 1 3 -1
-2 -1 2 -2 -2 0 -3 -2 -5 -5 -9 20 2 1 -2 -2 -3 -2 -1 1 1 1 -1 1 1 1 1 1 -4 4 -6 -0 -11 -2 -8 -13 -13 9 11 4 7 15 3 -6 -7
-4 -2 -3 -2 -0 -4 -2 -2 -4 -8 -10 6 3 -2 1 -1 2 -2 -2 2 1 2 -5 -2 6 3 4 4 1 -2 -1 -4 -4 -5 -5 12 -73 6 11 14 -1 1 -2 -2 -2
-2 -1 0 1 7 -3 1 2 -0 -4 -23 -13 -8 -6 -2 -1 -1 -0 -3 -3 -3 -1 1 4 -2 -1 1 2 3 1 2 2 -2 -8 -13 21 -37 32 10 11 -9 -0 -1 0 -3
-1 -2 7 -8 -5 1 -2 -1 1 -2 -6 -8 -2 -2 -2 -0 0 0 -1 -0 -1 -2 1 -0 -1 2 4 3 1 -2 1 -2 -1 2 -19 18 -7 17 18 6 11 2 0 -1 -2
0 0 -5 -3 3 -4 -3 -2 -6 11 -9 -11 -2 -3 -1 1 1 -2 2 4 -5 -10 6 2 4 1 2 -2 1 0 1 -6 -17 -6 2 1 -24 29 3 2 8 4 -2 -1 -2
-2 -1 -10 -0 -5 -2 -0 -4 0 -3 -4 -3 -3 -2 -6 1 2 -2 -2 5 2 -5 -9 -6 1 4 9 4 1 3 6 14 -23 -9 -2 1 -28 7 -0 3 3 -0 1 0 -1
5 -6 6 -2 -4 -3 -3 4 -4 -10 1 1 -0 -10 6 2 -6 -9 1 -1 2 6 2 -13 -4 -0 -1 1 7 6 2 8 -3 -0 -16 3 5 -1 6 6 6 2 4 2 -1
13 4 -3 -2 1 -1 -0 -3 -7 -6 2 2 0 2 -7 2 -6 -9 10 -6 -5 4 5 -16 -21 11 0 1 0 3 4 -2 8 -13 -18 -2 -10 -11 3 7 6 4 -2 -2 -6
2 13 -1 4 6 2 6 -0 0 2 7 -1 -2 -13 -3 -11 1 -2 -6 -7 -1 -1 4 2 3 -6 9 5 5 4 -1 14 16 7 -4 -27 -1 4 0 3 -2 -5 -3 -1 0
-1 11 -3 -9 2 -6 3 2 -1 3 9 -0 -1 -6 -2 3 -4 -4 -5 10 -1 2 2 8 -10 -1 7 4 5 6 -2 10 10 3 -4 -7 -44 21 6 5 -3 -5 3 6 7
-0 1 7 11 -1 3 1 1 -9 -7 -1 3 -3 -2 -5 1 -11 -0 6 5 1 2 6 7 0 0 2 4 10 12 12 6 9 8 2 6 -58 7 9 -0 -12 -5 3 4 4
-9 -5 -5 -4 4 3 -2 8 8 5 2 2 2 0 -1 1 13 -24 7 -6 6 0 6 3 1 14 6 1 7 -4 14 9 13 -10 4 -5 -40 33 6 -11 -13 -1 4 -0 0
-2 -5 -8 7 3 -7 -10 -5 -7 1 4 -0 3 1 0 -10 3 3 3 6 6 -1 6 6 -10 8 3 2 5 -3 3 13 -3 8 -8 3 -22 2 -4 -15 -5 -5 0 3 -1
-8 -4 4 1 -3 -4 -1 5 -3 5 -3 7 -7 3 3 -2 -2 -2 -7 10 -0 4 -3 6 -9 -1 -4 10 -3 -4 13 3 8 3 -11 -1 -6 5 5 2 2 -2 0 -1 -4
2 -0 -11 5 5 -4 5 -2 6 -4 20 -2 -5 -7 1 -1 -2 5 3 4 4 -4 -2 -0 -2 2 -14 -3 -5 -4 1 5 3 4 -3 -2 3 -2 -3 -6 -2 2 0 1 2
Height
5837 5835 5833 5831 5830 5828 5827 5826 5825 5823 5821 5819 5817 5814 5812 5810 5809 5808 5808 5808 5806 5804 5802 5800 5799 5798 5797 5795 5794 5792 5793 5794 5792 5791 5789 5791 5789 5786 5787 5787 5786 5786 5786 5783 5782
5836 5834 5832 5830 5828 5826 5824 5822 5821 5819 5817 5815 5812 5810 5809 5807 5806 5805 5804 5802 5801 5800 5798 5796 5794 5792 5791 5790 5788 5786 5787 5786 5785 5783 5783 5782 5782 5781 5780 5779 5780 5778 5778 5777 5776
5835 5832 5830 5828 5826 5823 5821 5819 5817 5815 5813 5810 5808 5805 5804 5802 5801 5799 5799 5797 5796 5794 5792 5791 5789 5787 5785 5784 5783 5782 5781 5779 5778 5775 5775 5775 5775 5773 5773 5774 5773 5770 5769 5769 5768
5832 5829 5827 5825 5822 5820 5818 5815 5813 5810 5808 5806 5803 5800 5799 5796 5795 5793 5791 5790 5789 5788 5785 5784 5783 5781 5779 5777 5775 5775 5775 5775 5775 5769 5766 5768 5769 5767 5765 5767 5766 5763 5762 5761 5761
5827 5824 5822 5819 5817 5815 5813 5810 5808 5805 5802 5799 5797 5794 5793 5792 5789 5786 5785 5783 5781 5779 5778 5775 5773 5772 5771 5771 5769 5766 5768 5766 5766 5765 5762 5759 5760 5759 5761 5759 5758 5755 5753 5753 5753
5822 5819 5816 5814 5812 5809 5807 5804 5802 5799 5796 5794 5792 5790 5788 5785 5783 5782 5779 5777 5774 5772 5770 5769 5766 5764 5763 5762 5762 5761 5759 5759 5758 5757 5755 5753 5750 5750 5754 5749 5750 5749 5746 5744 5744
5819 5817 5814 5811 5808 5805 5802 5800 5796 5793 5791 5789 5786 5783 5781 5780 5777 5774 5773 5771 5768 5766 5764 5761 5759 5757 5756 5753 5753 5751 5750 5750 5751 5749 5746 5745 5743 5745 5740 5741 5739 5738 5737 5737 5735
5815 5813 5809 5807 5804 5801 5797 5795 5791 5788 5785 5783 5781 5779 5777 5774 5771 5768 5766 5763 5762 5759 5757 5753 5751 5748 5746 5745 5743 5741 5741 5740 5741 5738 5736 5735 5735 5735 5733 5731 5729 5727 5725 5727 5727
5809 5806 5803 5800 5797 5794 5792 5788 5785 5782 5778 5776 5773 5770 5770 5767 5764 5761 5758 5756 5753 5750 5748 5745 5743 5740 5738 5735 5733 5732 5729 5729 5728 5727 5725 5724 5724 5724 5721 5719 5717 5717 5716 5715 5716
5803 5800 5796 5794 5791 5787 5782 5780 5777 5775 5771 5767 5766 5764 5761 5758 5754 5752 5749 5746 5743 5741 5738 5735 5732 5730 5728 5724 5723 5721 5720 5718 5716 5714 5713 5712 5715 5711 5710 5708 5707 5707 5706 5704 5704
5793 5789 5787 5784 5782 5777 5777 5773 5771 5766 5763 5759 5756 5753 5749 5746 5744 5740 5737 5735 5733 5730 5727 5725 5722 5721 5718 5716 5714 5710 5707 5706 5706 5701 5698 5699 5699 5701 5698 5698 5698 5696 5695 5695 5693
5784 5780 5776 5772 5770 5767 5764 5760 5756 5751 5750 5754 5748 5743 5739 5734 5732 5728 5726 5724 5721 5718 5715 5714 5713 5710 5708 5705 5702 5700 5697 5696 5692 5691 5685 5684 5685 5685 5685 5687 5686 5683 5684 5683 5681
5778 5774 5769 5765 5762 5759 5756 5751 5746 5741 5736 5742 5738 5735 5731 5727 5723 5719 5716 5712 5710 5707 5705 5702 5701 5699 5696 5692 5688 5685 5683 5682 5680 5678 5674 5671 5668 5672 5673 5674 5673 5672 5670 5667 5667
5770 5767 5762 5760 5754 5750 5747 5742 5737 5732 5728 5730 5724 5721 5718 5715 5714 5710 5707 5704 5700 5697 5693 5688 5688 5685 5681 5679 5678 5674 5673 5669 5667 5663 5658 5659 5649 5654 5659 5661 5660 5656 5653 5652 5651
5761 5756 5753 5744 5744 5739 5737 5731 5728 5723 5719 5716 5712 5708 5706 5706 5703 5700 5696 5692 5689 5685 5684 5680 5674 5670 5668 5667 5664 5662 5657 5655 5652 5649 5644 5645 5641 5640 5635 5645 5646 5643 5640 5639 5638
5751 5747 5743 5736 5732 5729 5725 5720 5718 5716 5710 5706 5701 5699 5696 5693 5689 5686 5683 5681 5677 5672 5669 5666 5662 5658 5657 5654 5650 5647 5644 5641 5639 5635 5630 5634 5629 5629 5629 5630 5627 5627 5628 5627 5626
5741 5737 5730 5727 5724 5719 5715 5712 5709 5705 5700 5695 5692 5688 5683 5679 5676 5673 5669 5667 5662 5656 5654 5651 5648 5645 5643 5639 5637 5633 5630 5627 5623 5623 5620 5617 5614 5620 5620 5615 5612 5610 5610 5610 5610
5731 5726 5721 5716 5711 5707 5703 5700 5697 5692 5688 5683 5680 5675 5671 5666 5662 5658 5655 5653 5649 5644 5638 5635 5633 5630 5630 5626 5623 5621 5620 5617 5607 5606 5605 5602 5600 5606 5604 5600 5597 5595 5594 5592 5591
5721 5716 5712 5707 5703 5698 5695 5691 5685 5679 5676 5670 5666 5661 5659 5653 5647 5643 5639 5635 5633 5630 5625 5617 5618 5615 5614 5611 5611 5609 5606 5602 5594 5593 5588 5588 5590 5591 5587 5583 5581 5579 5577 5576 5574
5714 5708 5704 5698 5693 5688 5684 5680 5674 5668 5663 5658 5653 5649 5644 5640 5634 5628 5626 5621 5616 5614 5610 5603 5600 5602 5600 5597 5596 5594 5590 5586 5581 5575 5572 5576 5575 5573 5570 5569 5567 5564 5562 5559 5556
5704 5699 5693 5689 5684 5679 5673 5669 5663 5657 5650 5645 5641 5635 5630 5624 5621 5615 5611 5605 5602 5598 5595 5589 5587 5586 5585 5583 5581 5577 5574 5572 5567 5562 5558 5557 5562 5556 5554 5553 5551 5548 5545 5542 5539
5692 5688 5680 5675 5671 5664 5660 5653 5648 5642 5636 5628 5621 5618 5613 5607 5604 5598 5595 5592 5588 5584 5581 5577 5571 5568 5568 5567 5565 5562 5560 5556 5549 5547 5543 5540 5545 5546 5544 5539 5534 5530 5528 5527 5525
5679 5674 5668 5662 5655 5650 5645 5639 5631 5626 5620 5614 5606 5601 5596 5590 5583 5581 5579 5575 5572 5567 5563 5561 5558 5553 5552 5553 5549 5546 5544 5541 5534 5531 5529 5527 5526 5533 5526 5520 5515 5514 5512 5509 5508
5663 5658 5651 5643 5637 5631 5624 5620 5613 5604 5597 5594 5589 5583 5575 5571 5566 5559 5557 5552 5551 5549 5546 5543 5543 5540 5536 5535 5532 5528 5527 5524 5518 5513 5512 5505 5508 5516 5508 5499 5497 5495 5494 5493 5490
5647 5642 5635 5629 5623 5616 5608 5602 5597 5588 5580 5574 5568 5562 5555 5550 5548 5541 5538 5533 5532 5527 5527 5524 5522 5521 5520 5519 5514 5510 5508 5509 5502 5499 5490 5494 5490 5496 5485 5481 5481 5479 5477 5474 5471
5630 5625 5623 5615 5607 5600 5593 5587 5579 5571 5563 5558 5551 5544 5540 5532 5525 5521 5517 5516 5510 5509 5508 5507 5503 5504 5502 5504 5498 5495 5497 5496 5491 5486 5479 5480 5480 5477 5473 5470 5466 5463 5462 5459 5457
5615 5610 5603 5602 5593 5584 5575 5565 5560 5550 5547 5536 5528 5523 5520 5514 5510 5505 5502 5501 5500 5497 5496 5492 5491 5488 5484 5488 5483 5483 5485 5481 5477 5474 5469 5467 5466 5463 5462 5459 5456 5453 5449 5446 5441